Time,TemperatureF,DewpointF,PressureIn,WindDirection,WindDirectionDegrees,WindSpeedMPH,WindSpeedGustMPH,Humidity,HourlyPrecipIn,Conditions,Clouds,dailyrainin,SolarRadiationWatts/m^2,SoftwareType,DateUTC
2013-04-18 00:02:00,35.0,15.0,-100.00,NW,314,1.0,2.0,42,-99.99,,,0.00,0.000000,,2013-04-18 07:02:00,
2013-04-18 00:12:00,35.0,15.0,-100.00,NW,314,1.0,2.0,42,-99.99,,,0.00,0.000000,,2013-04-18 07:12:00,
2013-04-18 00:42:00,30.0,13.0,-100.00,SSE,147,2.0,6.0,48,-99.99,,,0.00,0.000000,,2013-04-18 07:42:00,
2013-04-18 00:52:00,30.0,13.0,-100.00,SSE,147,2.0,6.0,48,-99.99,,,0.00,0.000000,,2013-04-18 07:52:00,
2013-04-18 01:02:00,30.0,13.0,-100.00,SSE,147,2.0,6.0,48,-99.99,,,0.00,0.000000,,2013-04-18 08:02:00,
2013-04-18 01:12:00,30.0,13.0,-100.00,SSE,147,2.0,6.0,48,-99.99,,,0.00,0.000000,,2013-04-18 08:12:00,
2013-04-18 01:42:00,26.0,14.0,-100.00,SSE,154,2.0,7.0,58,-99.99,,,0.00,0.000000,,2013-04-18 08:42:00,
2013-04-18 01:52:00,26.0,14.0,-100.00,SSE,154,2.0,7.0,58,-99.99,,,0.00,0.000000,,2013-04-18 08:52:00,
2013-04-18 02:02:00,26.0,14.0,-100.00,SSE,154,2.0,7.0,58,-99.99,,,0.00,0.000000,,2013-04-18 09:02:00,
2013-04-18 02:11:00,26.0,14.0,-100.00,SSE,154,2.0,7.0,58,-99.99,,,0.00,0.000000,,2013-04-18 09:11:00,
2013-04-18 02:42:00,26.0,14.0,-100.00,South,170,1.0,3.0,60,-99.99,,,0.00,0.000000,,2013-04-18 09:42:00,
2013-04-18 02:53:00,26.0,14.0,-100.00,South,170,1.0,3.0,60,-99.99,,,0.00,0.000000,,2013-04-18 09:53:00,
2013-04-18 03:03:00,26.0,14.0,-100.00,South,170,1.0,3.0,60,-99.99,,,0.00,0.000000,,2013-04-18 10:03:00,
2013-04-18 03:12:00,26.0,14.0,-100.00,South,170,1.0,3.0,60,-99.99,,,0.00,0.000000,,2013-04-18 10:12:00,
2013-04-18 03:42:00,23.0,14.0,-100.00,South,184,3.0,5.0,69,-99.99,,,0.00,0.000000,,2013-04-18 10:42:00,
2013-04-18 03:52:00,23.0,14.0,-100.00,South,184,3.0,5.0,69,-99.99,,,0.00,0.000000,,2013-04-18 10:52:00,
2013-04-18 04:02:00,23.0,14.0,-100.00,South,184,3.0,5.0,69,-99.99,,,0.00,0.000000,,2013-04-18 11:02:00,
2013-04-18 04:42:00,25.0,13.0,-100.00,South,170,1.0,3.0,60,-99.99,,,0.00,0.000000,,2013-04-18 11:42:00,
2013-04-18 04:52:00,25.0,13.0,-100.00,South,170,1.0,3.0,60,-99.99,,,0.00,0.000000,,2013-04-18 11:52:00,
2013-04-18 05:02:00,25.0,13.0,-100.00,South,170,1.0,3.0,60,-99.99,,,0.00,0.000000,,2013-04-18 12:02:00,
2013-04-18 05:12:00,25.0,13.0,-100.00,South,170,1.0,3.0,60,-99.99,,,0.00,0.000000,,2013-04-18 12:12:00,
2013-04-18 05:42:00,26.0,14.0,-100.00,SSE,147,0.0,1.0,60,-99.99,,,0.00,0.000000,,2013-04-18 12:42:00,
2013-04-18 05:52:00,26.0,14.0,-100.00,SSE,147,0.0,1.0,60,-99.99,,,0.00,0.000000,,2013-04-18 12:52:00,
2013-04-18 06:02:00,26.0,14.0,-100.00,SSE,147,0.0,1.0,60,-99.99,,,0.00,0.000000,,2013-04-18 13:02:00,
2013-04-18 06:12:00,26.0,14.0,-100.00,SSE,147,0.0,1.0,60,-99.99,,,0.00,0.000000,,2013-04-18 13:12:00,
2013-04-18 06:42:00,23.0,13.0,-100.00,SSE,150,0.0,1.0,64,-99.99,,,0.00,2.670000,,2013-04-18 13:42:00,
2013-04-18 06:53:00,23.0,13.0,-100.00,SSE,150,0.0,1.0,64,-99.99,,,0.00,2.670000,,2013-04-18 13:53:00,
2013-04-18 07:02:00,23.0,13.0,-100.00,SSE,150,0.0,1.0,64,-99.99,,,0.00,2.670000,,2013-04-18 14:02:00,
2013-04-18 07:12:00,23.0,13.0,-100.00,SSE,150,0.0,1.0,64,-99.99,,,0.00,2.670000,,2013-04-18 14:12:00,
2013-04-18 07:42:00,27.0,16.0,-100.00,North,351,1.0,2.0,64,-99.99,,,0.00,154.220001,,2013-04-18 14:42:00,
2013-04-18 07:52:00,27.0,16.0,-100.00,North,351,1.0,2.0,64,-99.99,,,0.00,154.220001,,2013-04-18 14:52:00,
2013-04-18 08:02:00,27.0,16.0,-100.00,North,351,1.0,2.0,64,-99.99,,,0.00,154.220001,,2013-04-18 15:02:00,
2013-04-18 08:12:00,27.0,16.0,-100.00,North,351,1.0,2.0,64,-99.99,,,0.00,154.220001,,2013-04-18 15:12:00,
2013-04-18 08:42:00,39.0,16.0,-100.00,NW,316,3.0,7.0,39,-99.99,,,-99.99,229.070007,,2013-04-18 15:42:00,
2013-04-18 08:53:00,39.0,16.0,-100.00,NW,316,3.0,7.0,39,-99.99,,,-99.99,229.070007,,2013-04-18 15:53:00,
2013-04-18 09:03:00,39.0,16.0,-100.00,NW,316,3.0,7.0,39,-99.99,,,-99.99,229.070007,,2013-04-18 16:03:00,
2013-04-18 09:13:00,39.0,16.0,-100.00,NW,316,3.0,7.0,39,-99.99,,,-99.99,229.070007,,2013-04-18 16:13:00,
2013-04-18 09:42:00,42.0,13.0,-100.00,NNE,13,2.0,5.0,29,-99.99,,,0.00,420.140015,,2013-04-18 16:42:00,
2013-04-18 09:53:00,42.0,13.0,-100.00,NNE,13,2.0,5.0,29,-99.99,,,0.00,420.140015,,2013-04-18 16:53:00,
2013-04-18 10:02:00,42.0,13.0,-100.00,NNE,13,2.0,5.0,29,-99.99,,,0.00,420.140015,,2013-04-18 17:02:00,
2013-04-18 10:12:00,42.0,13.0,-100.00,NNE,13,2.0,5.0,29,-99.99,,,0.00,420.140015,,2013-04-18 17:12:00,
2013-04-18 10:42:00,46.0,11.0,-100.00,NNW,327,3.0,8.0,23,-99.99,,,0.00,716.840027,,2013-04-18 17:42:00,
2013-04-18 10:52:00,46.0,11.0,-100.00,NNW,327,3.0,8.0,23,-99.99,,,0.00,716.840027,,2013-04-18 17:52:00,
2013-04-18 11:02:00,46.0,11.0,-100.00,NNW,327,3.0,8.0,23,-99.99,,,0.00,716.840027,,2013-04-18 18:02:00,
2013-04-18 11:12:00,46.0,11.0,-100.00,NNW,327,3.0,8.0,23,-99.99,,,0.00,716.840027,,2013-04-18 18:12:00,
2013-04-18 11:42:00,50.0,10.0,-100.00,WSW,254,3.0,6.0,19,-99.99,,,0.00,849.570007,,2013-04-18 18:42:00,
2013-04-18 11:52:00,50.0,10.0,-100.00,WSW,254,3.0,6.0,19,-99.99,,,0.00,849.570007,,2013-04-18 18:52:00,
2013-04-18 12:02:00,50.0,10.0,-100.00,WSW,254,3.0,6.0,19,-99.99,,,0.00,849.570007,,2013-04-18 19:02:00,
2013-04-18 12:12:00,50.0,10.0,-100.00,WSW,254,3.0,6.0,19,-99.99,,,0.00,849.570007,,2013-04-18 19:12:00,
2013-04-18 12:42:00,52.0,10.0,-100.00,West,281,4.0,9.0,18,-99.99,,,0.00,929.760010,,2013-04-18 19:42:00,
2013-04-18 12:52:00,52.0,10.0,-100.00,West,281,4.0,9.0,18,-99.99,,,0.00,929.760010,,2013-04-18 19:52:00,
2013-04-18 13:02:00,52.0,10.0,-100.00,West,281,4.0,9.0,18,-99.99,,,0.00,929.760010,,2013-04-18 20:02:00,
2013-04-18 13:12:00,52.0,10.0,-100.00,West,281,4.0,9.0,18,-99.99,,,0.00,929.760010,,2013-04-18 20:12:00,
2013-04-18 13:42:00,54.0,12.0,-100.00,NE,34,4.0,10.0,18,-99.99,,,0.00,949.520020,,2013-04-18 20:42:00,
2013-04-18 13:52:00,54.0,12.0,-100.00,NE,34,4.0,10.0,18,-99.99,,,0.00,949.520020,,2013-04-18 20:52:00,
2013-04-18 14:02:00,54.0,12.0,-100.00,NE,34,4.0,10.0,18,-99.99,,,0.00,949.520020,,2013-04-18 21:02:00,
2013-04-18 14:12:00,54.0,12.0,-100.00,NE,34,4.0,10.0,18,-99.99,,,0.00,949.520020,,2013-04-18 21:12:00,
2013-04-18 15:42:00,57.0,13.0,-100.00,WNW,290,4.0,11.0,17,-99.99,,,0.00,800.059998,,2013-04-18 22:42:00,
2013-04-18 15:52:00,57.0,13.0,-100.00,WNW,290,4.0,11.0,17,-99.99,,,0.00,800.059998,,2013-04-18 22:52:00,
2013-04-18 16:03:00,57.0,13.0,-100.00,WNW,290,4.0,11.0,17,-99.99,,,0.00,800.059998,,2013-04-18 23:03:00,
2013-04-18 16:11:00,57.0,13.0,-100.00,WNW,290,4.0,11.0,17,-99.99,,,0.00,800.059998,,2013-04-18 23:11:00,
2013-04-18 16:42:00,58.0,13.0,-100.00,NW,323,3.0,10.0,16,-99.99,,,0.00,644.320007,,2013-04-18 23:42:00,
2013-04-18 16:52:00,58.0,13.0,-100.00,NW,323,3.0,10.0,16,-99.99,,,0.00,644.320007,,2013-04-18 23:52:00,
2013-04-18 17:01:00,58.0,13.0,-100.00,NW,323,3.0,10.0,16,-99.99,,,0.00,644.320007,,2013-04-19 00:01:00,
2013-04-18 17:11:00,58.0,13.0,-100.00,NW,323,3.0,10.0,16,-99.99,,,0.00,644.320007,,2013-04-19 00:11:00,
2013-04-18 18:42:00,59.0,14.0,-100.00,NNE,30,5.0,10.0,16,-99.99,,,0.00,256.500000,,2013-04-19 01:42:00,
2013-04-18 18:52:00,59.0,14.0,-100.00,NNE,30,5.0,10.0,16,-99.99,,,0.00,256.500000,,2013-04-19 01:52:00,
2013-04-18 19:01:00,59.0,14.0,-100.00,NNE,30,5.0,10.0,16,-99.99,,,0.00,256.500000,,2013-04-19 02:01:00,
2013-04-18 19:11:00,59.0,14.0,-100.00,NNE,30,5.0,10.0,16,-99.99,,,0.00,256.500000,,2013-04-19 02:11:00,
2013-04-18 19:42:00,57.0,14.0,-100.00,NE,55,2.0,5.0,17,-99.99,,,0.00,49.740002,,2013-04-19 02:42:00,
2013-04-18 19:52:00,57.0,14.0,-100.00,NE,55,2.0,5.0,17,-99.99,,,0.00,49.740002,,2013-04-19 02:52:00,
2013-04-18 20:01:00,57.0,14.0,-100.00,NE,55,2.0,5.0,17,-99.99,,,0.00,49.740002,,2013-04-19 03:01:00,
2013-04-18 20:11:00,57.0,14.0,-100.00,NE,55,2.0,5.0,17,-99.99,,,0.00,49.740002,,2013-04-19 03:11:00,
2013-04-18 20:43:00,51.0,15.0,-100.00,East,84,2.0,3.0,23,-99.99,,,0.00,0.000000,,2013-04-19 03:43:00,
2013-04-18 20:53:00,51.0,15.0,-100.00,East,84,2.0,3.0,23,-99.99,,,0.00,0.000000,,2013-04-19 03:53:00,
2013-04-18 21:03:00,51.0,15.0,-100.00,East,84,2.0,3.0,23,-99.99,,,0.00,0.000000,,2013-04-19 04:03:00,
2013-04-18 21:12:00,51.0,15.0,-100.00,East,84,2.0,3.0,23,-99.99,,,0.00,0.000000,,2013-04-19 04:12:00,
2013-04-18 21:43:00,45.0,19.0,-100.00,SW,225,3.0,3.0,34,-99.99,,,0.00,0.000000,,2013-04-19 04:43:00,
2013-04-18 21:52:00,45.0,19.0,-100.00,SW,225,3.0,3.0,34,-99.99,,,0.00,0.000000,,2013-04-19 04:52:00,
2013-04-18 22:03:00,45.0,19.0,-100.00,SW,225,3.0,3.0,34,-99.99,,,0.00,0.000000,,2013-04-19 05:03:00,
2013-04-18 22:11:00,45.0,19.0,-100.00,SW,225,3.0,3.0,34,-99.99,,,0.00,0.000000,,2013-04-19 05:11:00,
2013-04-18 22:42:00,41.0,22.0,-100.00,SW,219,1.0,2.0,46,-99.99,,,0.00,0.000000,,2013-04-19 05:42:00,
2013-04-18 22:52:00,41.0,22.0,-100.00,SW,219,1.0,2.0,46,-99.99,,,0.00,0.000000,,2013-04-19 05:52:00,
2013-04-18 23:42:00,42.0,19.0,-100.00,WNW,289,1.0,2.0,39,-99.99,,,0.00,0.230000,,2013-04-19 06:42:00,
2013-04-18 23:53:00,42.0,19.0,-100.00,WNW,289,1.0,2.0,39,-99.99,,,0.00,0.230000,,2013-04-19 06:53:00,